CZ-6A DEB, 55515

Orbit data source: Space-Track

CZ-6A DEB, 55515 is space debris in SSO originally from a launch on Fri, 11 Nov 2022 UTC launched from the Taiyaun Space Center, China (TSC). Debris objects in space refer to the collection of defunct objects orbiting the Earth. Examples of debris include non-operational satellites, rocket bodies, and fragments generated from explosions, collisions, or faulty payload assembly.

Loading next visibility...
Identifier
55515, 2022-151XM
Orbit
SSO
Country
Flag of CNCN / PRC
Related business
Manufacturer
SAST
Mission
Spacecraft
Bus & Motor
Unknown
Mass
Unknown
Launch date (UTC)
2022-11-11 (4 years ago)
Launch vehicle
Unknown
Launch site
Taiyaun Space Center, China (TSC)
Object type
Payload
Rocket body
Debris
Shape & HBR
Unknown shape, 0.1 m
Radar Cross Section
Small (<0.1 m²)

Expand to show TLE details & history
Last TLE update: 2 days ago

TLE from 2 days ago
0 CZ-6A DEB
1 55515U 22151XM  26171.05829705  .00002872  00000-0  57952-3 0  9995
2 55515  98.5135 210.0799 0130447 301.3547  57.4939 14.57026983184920
Epoch: 2026-06-20T01:23Z
TLE epoch observation values (Epoch: 2026-06-20T01:23:56.865Z)
Latitude
Longitude
-79.18541°
Altitude
656.98 km
Speed
7.555 km/s
True Right ascension
14h 00m 19s
True Declination
0° 00' 00"
Sunlit
Object was in full shadow at epoch
Visualization orbit readout
Latitude
Unknown
Longitude
Unknown
Altitude
Unknown
Speed
Unknown
Apparent Right ascension
Unknown
Apparent Declination
Unknown
Sunlit
N/A
Visualization observer readout
Local Sidereal Time
21:46:02
Azimuth
Unknown
Elevation
Unknown
Doppler factor
Unknown
Orbital elements
Apogee altitude
792.22 km
Perigee altitude
607.558 km
Semi-major axis
7,078.026 km
Eccentricity
0.01304
Inclination
98.5135°
RAAN
210.0799°
Arg. of periapsis
301.3547°
True anomaly
58.76556°
Mean anomaly
57.4939°
Eccentric anomaly
58.12862°
Mean motion
3.64481 °/min
Orbital period
98.77 mins
BSTAR
0.00057952
Loading maneuver chart data...
Computing Atmospheric mass density...

Documentation

Showing up to 5 results
|